This is the latest recevied weather packets stored in our database for station/object Seibranz. If no packets are shown the sender has not sent any weather packets the latest 10 day(s).
| Time | Temp. | Humidity | Pressure | Rain* | Wind** | Luminosity | Snow |
|---|---|---|---|---|---|---|---|
| 1787806930 | 13.89° C | 93% | 1012 hPa | 0 mm | - | - | - |
| 1787805129 | 15° C | 91% | 1012 hPa | 0 mm | - | - | - |
| 1787803330 | 15.56° C | 91% | 1011.8 hPa | 0 mm | - | - | - |
| 1787801529 | 15.56° C | 91% | 1011.8 hPa | 0 mm | - | - | - |
| 1787797929 | 16.11° C | 91% | 1012.2 hPa | 0 mm | - | - | - |
| 1787796130 | 16.11° C | 89% | 1012.2 hPa | 0 mm | - | - | - |
| 1787794330 | 17.78° C | 87% | 1012.2 hPa | 0 mm | - | - | - |
| 1787792530 | 17.78° C | 85% | 1012.4 hPa | 0 mm | - | - | - |
| 1787790731 | 17.78° C | 86% | 1012.5 hPa | 0 mm | - | - | - |
| 1787788931 | 17.78° C | 86% | 1012.8 hPa | 0 mm | - | - | - |
| 1787787131 | 17.78° C | 85% | 1012.6 hPa | 0 mm | - | - | - |
| 1787785331 | 18.33° C | 83% | 1012.8 hPa | 0 mm | - | - | - |
| 1787783531 | 18.33° C | 85% | 1013 hPa | 0 mm | - | - | - |
| 1787779931 | 18.89° C | 83% | 1013.3 hPa | 1.02 mm | - | - | - |
| 1787778131 | 19.44° C | 81% | 1013.4 hPa | 1.02 mm | - | - | - |
| 1787776332 | 20° C | 79% | 1013.3 hPa | 1.02 mm | - | - | - |
| 1787774532 | 19.44° C | 82% | 1013.9 hPa | 1.02 mm | - | - | - |
| 1787772730 | 17.78° C | 89% | 1013.7 hPa | 1.02 mm | - | - | - |
| 1787770931 | 18.89° C | 87% | 1013.4 hPa | 1.02 mm | - | - | - |
| 1787769131 | 18.89° C | 87% | 1013.4 hPa | 1.02 mm | - | - | - |
| 1787767330 | 20.56° C | 84% | 1013.5 hPa | 1.02 mm | - | - | - |
| 1787765530 | 22.78° C | 74% | 1013.5 hPa | 1.02 mm | - | - | - |
| 1787763731 | 23.33° C | 71% | 1013.7 hPa | 1.02 mm | - | - | - |
| 1787761931 | 25° C | 62% | 1013.6 hPa | 1.02 mm | - | - | - |
| 1787760131 | 24.44° C | 65% | 1013.6 hPa | 1.02 mm | - | - | - |
* Rain since midnight (hover to see other rain measurements)
** Current wind speed in m/s (hover to see current wind gust speed)